| time (UTC) | temp F | wind direction | speed MPH | gust MPH | rain 1hr in | rain 24hr in | rain mn in | humidity % | barometer mb |
| 20260904211713 | 63 | 260 | 30.0 | 43.0 | 0.00 | 0.00 | 0.00 | 67 | |
| 20260904201713 | 63 | 270 | 24.0 | 36.0 | 0.00 | 0.00 | 0.00 | 67 | |
| 20260904191955 | 64 | 250 | 26.0 | 35.0 | 0.00 | 0.00 | 0.00 | 63 | |
| 20260904181656 | 64 | 240 | 28.0 | 0.0 | 0.00 | 0.00 | 0.00 | 63 | |
| 20260904171712 | 66 | 230 | 28.0 | 38.0 | 0.00 | 0.00 | 0.00 | 55 | |
| 20260904161956 | 66 | 220 | 26.0 | 35.0 | 0.00 | 0.00 | 0.00 | 59 | |
| 20260904151713 | 66 | 220 | 21.0 | 31.0 | 0.00 | 0.00 | 0.00 | 59 | |
| 20260904141655 | 66 | 230 | 25.0 | 35.0 | 0.00 | 0.00 | 0.00 | 59 | |
| 20260904131912 | 63 | 210 | 22.0 | 33.0 | 0.00 | 0.00 | 0.00 | 72 | |
| 20260904121656 | 61 | 220 | 26.0 | 40.0 | 0.00 | 0.00 | 0.00 | 77 | |
| 20260904111656 | 59 | 230 | 26.0 | 39.0 | 0.00 | 0.00 | 0.00 | 82 | |
| 20260904102113 | 57 | 230 | 22.0 | 30.0 | 0.00 | 0.00 | 0.00 | 87 | |
| 20260904091711 | 55 | 240 | 20.0 | 26.0 | 0.00 | 0.00 | 0.00 | 93 | |
| 20260904081711 | 54 | 250 | 25.0 | 0.0 | 0.00 | 0.00 | 0.00 | 99 | |
| 20260904061655 | 54 | 250 | 24.0 | 32.0 | 0.00 | 0.00 | 0.00 | 93 | |
| 20260904051656 | 52 | 240 | 22.0 | 29.0 | 0.00 | 0.00 | 0.00 | 99 | |
| 20260904042059 | 52 | 260 | 24.0 | 36.0 | 0.00 | 0.00 | 0.00 | 99 | |
| 20260904031656 | 54 | 270 | 23.0 | 30.0 | 0.00 | 0.00 | 0.00 | 93 | |
| 20260904021657 | 54 | 260 | 26.0 | 35.0 | 0.00 | 0.00 | 0.00 | 87 | |
| 20260904011957 | 54 | 260 | 26.0 | 35.0 | 0.00 | 0.00 | 0.00 | 87 | |
| 20260904001656 | 54 | 250 | 26.0 | 33.0 | 0.00 | 0.00 | 0.00 | 81 | |
| 20260903231656 | 54 | 250 | 28.0 | 35.0 | 0.00 | 0.00 | 0.00 | 81 | |
| 20260903222058 | 54 | 270 | 29.0 | 36.0 | 0.00 | 0.00 | 0.00 | 81 |